Location: Charlotte
(35.2269°N, 80.8433°W)
Time: 09:08:47
(UTC-04:00)

ISS - Visible Passes

Search period start: 30 July 2014 00:00
Search period end: 09 August 2014 00:00
Orbit: 411 x 419 km, 51.6° (Epoch: 30 July)

Date Brightness Start Highest point End Pass type
(mag) Time Alt. Az. Time Alt. Az. Time Alt. Az.
31 Jul -0.4 05:22:49 10° NNW 05:25:24 20° NNE 05:27:58 10° E visible
01 Aug 0.0 04:34:33 10° N 04:36:22 14° NNE 04:38:09 10° ENE visible
01 Aug -1.6 21:14:57 10° SSE 21:16:56 15° SE 21:17:04 15° SE visible
01 Aug -0.3 22:50:11 10° WSW 22:50:15 11° WSW 22:50:15 11° WSW visible
02 Aug -2.3 05:21:19 10° NW 05:24:37 50° NE 05:27:53 10° ESE visible
02 Aug -3.3 22:01:11 10° SW 22:04:29 81° NW 22:07:50 10° NE visible
02 Aug 0.2 23:40:14 10° NW 23:41:09 12° NW 23:41:09 12° NW visible
03 Aug -1.2 04:32:42 10° NNW 04:35:41 29° NE 04:38:39 10° E visible
03 Aug -3.1 21:12:29 10° SSW 21:15:41 49° SE 21:18:55 10° ENE visible
03 Aug -0.3 22:50:14 10° WNW 22:52:35 18° NNW 22:54:56 10° NNE visible
04 Aug -0.4 03:46:04 18° NNE 03:46:41 18° NNE 03:49:07 10° ENE visible
04 Aug -3.1 05:20:19 10° WNW 05:23:34 46° SW 05:26:47 10° SSE visible
04 Aug -1.0 22:00:40 10° W 22:03:34 27° NW 22:06:29 10° NNE visible
05 Aug -1.1 04:37:09 18° SE 04:37:09 18° SE 04:38:06 10° SE visible
05 Aug -2.2 21:11:24 10° WSW 21:14:37 47° NW 21:17:51 10° NE visible
06 Aug 0.0 22:01:12 10° NW 22:02:51 13° NNW 22:04:31 10° N visible
07 Aug -0.4 21:11:17 10° W 21:13:45 19° NNW 21:16:14 10° NNE visible
